Probability
0 0 0 0 0 0 0 0 1 0 1 2 4 8 12 11 6 2 6 17 22 14 7 9 9 9 9 6 4 4 3 1 0 0 0 0 0 0 1 1 1 0 0 0 0 0 0 0 0
0 0 0 0 0 0 0 1 1 1 0 2 5 11 13 10 5 4 9 20 23 16 10 11 12 12 11 8 6 6 5 2 1 1 0 0 0 0 1 2 1 0 0 0 0 0 0 0 0
0 0 0 0 0 0 0 1 2 2 1 3 10 16 16 11 5 6 13 21 23 19 15 15 17 17 14 11 9 8 6 4 3 3 1 0 0 0 1 1 1 0 0 0 0 0 0 0 0
0 0 0 0 0 0 0 0 1 2 3 7 15 22 21 14 9 9 14 18 20 19 17 18 22 22 20 17 15 12 11 11 10 8 4 1 0 0 0 0 0 0 0 0 0 0 0 0 0
0 0 0 0 0 0 0 0 0 1 3 10 21 27 24 16 11 10 13 14 14 15 15 18 24 28 27 25 22 20 20 21 21 18 12 6 2 1 1 1 0 0 0 0 0 0 0 0 0
0 0 0 0 0 0 1 1 1 4 7 15 27 31 23 15 10 9 10 12 13 13 13 14 19 26 29 28 27 26 25 26 28 26 20 11 5 4 3 2 1 0 0 0 0 0 0 0 0
0 0 0 0 0 1 2 3 4 9 13 19 28 29 21 14 12 13 15 17 19 17 13 10 12 18 23 24 25 25 25 25 24 22 17 11 7 6 5 4 3 1 1 1 1 0 0 0 0
0 0 0 0 1 3 5 7 10 15 22 29 34 33 28 22 21 24 27 28 29 26 19 13 12 14 16 18 20 22 23 22 18 13 10 8 7 6 5 5 5 3 2 2 2 2 1 1 0
0 0 0 0 1 4 7 10 14 19 30 43 48 47 42 34 30 33 38 40 40 36 28 21 18 16 15 15 17 18 18 18 15 9 6 6 6 6 5 6 8 7 4 3 3 4 3 2 1
0 0 0 1 2 5 7 10 12 18 31 45 52 52 48 41 38 39 44 47 46 42 35 29 25 21 17 17 18 17 16 16 12 8 7 8 9 10 11 14 16 14 8 4 3 4 4 3 2
0 0 0 2 3 5 7 10 14 18 27 37 44 45 44 42 42 44 48 51 50 46 39 34 33 30 27 25 23 21 21 20 16 13 13 12 12 14 19 25 26 22 14 9 7 6 6 5 5
0 0 0 1 3 5 9 15 21 25 28 32 36 37 39 41 44 48 52 55 55 51 45 41 41 42 42 38 31 28 27 26 24 22 20 18 17 19 23 28 30 26 20 16 14 12 10 9 9
0 0 0 1 2 4 10 17 24 28 30 30 29 31 35 40 46 51 54 57 55 52 47 45 45 48 50 47 39 35 33 30 29 29 28 25 25 25 25 27 28 27 24 22 20 18 16 15 13
0 0 0 1 2 3 7 12 19 24 26 26 28 31 37 43 48 52 55 55 52 49 46 44 43 45 49 48 42 37 36 35 34 35 33 31 30 29 29 29 29 27 27 27 23 20 19 18 15
0 0 0 0 1 1 2 7 14 18 20 24 30 35 40 45 48 51 54 53 50 47 44 41 39 42 46 45 39 35 36 38 39 38 35 31 29 29 31 32 32 30 29 28 25 22 21 18 14
0 0 0 0 0 0 0 4 12 16 18 25 34 37 39 41 42 43 47 48 46 44 41 36 35 39 42 40 34 33 35 38 39 38 34 30 28 28 30 32 33 30 28 27 25 24 24 21 17
0 0 0 0 0 0 0 4 11 15 19 28 35 36 36 37 34 32 34 36 37 38 35 31 30 34 37 35 31 32 33 35 36 35 31 26 24 24 26 27 27 26 25 25 25 27 26 22 20
0 0 0 0 0 0 1 6 11 14 20 28 32 32 34 35 30 25 25 25 27 30 30 28 27 28 29 28 28 28 29 29 29 28 25 22 19 19 19 18 17 18 19 21 23 23 22 20 19
0 0 0 0 0 0 2 6 9 12 18 25 28 29 32 33 28 23 21 20 21 22 25 24 22 22 23 23 23 22 22 22 21 19 19 18 17 15 12 10 9 11 14 16 16 15 15 14 14
0 0 0 0 0 0 2 5 7 10 15 22 26 29 32 31 27 23 21 20 20 20 21 19 17 18 20 22 21 19 17 15 12 11 12 13 13 11 8 5 5 7 10 12 10 9 8 7 8
0 0 0 0 0 0 1 3 6 10 16 23 25 28 33 33 28 25 23 22 20 19 18 16 14 15 18 20 19 16 14 11 7 4 5 6 6 6 5 3 3 5 7 9 8 7 4 3 3
0 0 0 0 0 0 0 2 7 14 20 24 25 29 36 37 32 29 26 23 18 16 14 13 13 15 17 17 15 12 9 7 4 3 2 2 2 2 2 2 3 4 5 6 7 5 3 2 2
0 0 0 0 0 0 0 2 8 17 23 24 25 31 39 41 37 33 28 23 16 12 12 12 13 14 16 15 12 8 6 4 4 5 4 2 1 0 0 1 2 4 4 5 6 3 2 3 3
0 0 0 0 0 0 0 2 9 18 23 24 27 34 41 43 39 33 27 20 14 11 11 11 12 12 13 12 10 7 4 4 5 6 5 4 2 1 0 1 2 3 3 4 4 3 2 3 3
0 0 0 0 0 0 0 6 14 19 23 29 32 35 39 38 35 30 24 17 12 11 11 10 10 10 10 9 8 6 5 5 6 6 6 4 3 1 0 0 1 1 2 2 2 2 2 2 2
0 0 0 0 0 0 1 9 20 23 27 33 33 33 33 31 29 26 21 16 12 10 10 10 9 9 8 7 6 6 7 7 7 6 6 5 3 1 0 0 0 0 1 1 1 1 0 1 1
0 0 0 0 0 0 1 9 18 24 27 29 29 30 30 27 25 22 18 14 12 10 9 9 8 7 6 6 6 6 6 7 7 6 4 4 3 1 0 0 0 0 0 0 0 0 0 0 0
0 0 0 0 0 0 1 5 15 22 24 24 25 27 27 24 20 17 15 13 11 9 8 7 6 4 3 4 5 4 4 5 5 4 3 3 2 1 0 0 0 0 0 0 0 0 0 0 0
0 0 0 0 0 1 2 5 13 20 22 22 22 23 22 20 17 15 13 11 8 5 4 3 3 1 1 2 3 3 3 3 3 3 2 1 1 0 0 0 0 0 0 0 0 0 0 0 0
0 0 0 0 0 1 3 6 13 18 19 20 20 21 20 19 17 15 13 10 6 2 1 1 1 0 0 1 3 3 3 3 3 2 1 0 0 0 0 0 0 0 0 0 0 0 0 0 0
Wind_Speed
10 12 11 8 8 10 13 8 5 8 7 9 10 12 16 15 11 10 9 15 19 18 15 14 12 12 11 12 12 12 12 12 11 10 9 9 8 8 8 8 8 8 8 8 8 7 7 7 7
10 13 10 8 9 11 9 6 9 11 9 9 10 14 16 14 13 10 11 15 18 16 13 13 13 12 12 12 12 12 12 12 11 10 9 8 8 7 7 7 7 7 7 7 7 7 6 6 5
11 14 9 8 13 13 7 5 11 11 8 8 9 12 11 9 10 8 12 15 16 15 14 14 13 13 12 12 12 12 12 11 11 10 9 8 7 7 6 6 6 6 6 6 5 5 5 4 3
8 8 8 10 14 11 2 8 10 10 7 8 10 12 9 6 7 12 14 15 15 15 15 14 13 13 12 12 12 11 11 11 10 10 9 8 7 6 5 5 5 5 5 4 4 4 3 2 2
9 8 11 13 15 8 5 8 7 7 7 9 11 13 9 7 13 15 13 14 14 15 15 14 13 12 12 12 11 11 10 10 9 8 8 7 6 5 5 4 4 4 4 3 3 3 2 1 0
8 8 11 13 12 5 4 6 4 6 7 8 13 14 8 8 12 13 13 12 13 15 16 13 13 13 12 11 10 10 9 9 8 7 7 6 5 5 4 4 4 4 3 3 2 2 1 1 1
11 11 14 16 10 6 5 5 5 4 7 7 8 11 9 9 11 12 12 12 13 14 15 12 11 11 11 11 10 9 9 8 7 7 6 5 5 5 4 4 3 3 3 3 2 2 3 3 3
11 11 16 16 9 6 8 6 5 4 6 9 8 10 11 12 11 11 11 12 13 12 11 11 11 10 9 9 10 9 8 7 6 6 5 5 5 5 5 5 4 4 4 3 3 4 4 5 6
14 12 15 14 8 6 9 7 6 6 9 12 14 13 17 15 13 12 11 11 11 10 9 9 9 8 7 8 9 8 7 5 5 4 4 4 4 4 5 5 6 5 4 4 5 5 6 7 8
11 12 15 8 3 7 10 8 8 7 9 13 17 17 17 14 11 11 11 11 10 9 8 7 8 7 6 6 7 4 4 4 3 2 3 3 2 2 3 5 7 6 6 6 7 7 7 7 5
14 16 9 2 4 5 7 7 5 7 7 12 16 15 12 13 11 10 10 10 9 8 7 6 7 5 5 5 5 3 2 3 2 1 1 1 1 1 1 2 3 4 5 4 5 5 4 4 3
14 10 4 2 3 3 5 6 8 10 11 16 18 15 11 10 10 10 10 9 9 8 6 6 6 5 5 3 3 3 2 2 1 0 1 1 1 2 1 1 1 2 2 2 2 2 2 3 4
12 7 3 3 4 4 6 9 10 13 14 17 17 15 12 11 10 10 9 9 8 8 7 6 6 5 4 3 1 2 2 2 2 2 1 1 1 2 1 1 0 1 1 2 1 2 2 2 4
9 6 6 6 7 6 8 9 10 12 13 14 15 12 11 11 11 10 9 8 7 7 7 6 6 5 4 3 2 2 2 2 2 2 1 1 1 2 2 1 1 1 1 1 1 2 1 1 3
7 7 8 8 9 8 9 8 10 13 14 13 13 12 12 11 11 10 9 8 7 7 6 5 5 5 5 4 3 2 2 2 2 2 2 2 2 2 2 1 1 1 1 1 1 2 1 2 2
9 10 11 11 12 11 10 8 11 13 13 13 12 11 11 10 11 9 9 8 7 7 6 5 5 5 4 4 3 2 2 2 2 2 2 3 3 3 3 2 1 2 2 1 1 1 1 1 1
12 14 14 14 14 12 11 9 13 14 13 12 11 10 11 10 10 9 9 8 7 6 6 5 5 5 4 3 2 2 2 2 2 3 3 3 3 4 3 2 2 2 2 1 2 1 1 1 1
14 15 14 13 14 13 10 8 13 14 13 13 12 10 10 10 9 9 9 9 8 6 5 5 5 5 3 2 2 2 2 2 3 3 3 4 3 4 3 2 2 3 2 2 2 2 2 1 1
12 12 12 11 12 12 10 11 13 13 12 13 13 11 11 10 10 9 9 8 8 6 6 5 5 4 3 2 1 2 2 2 2 3 4 4 4 5 4 4 3 3 2 2 3 2 2 1 1
11 11 10 8 10 9 9 11 12 13 13 12 12 12 13 12 10 9 8 8 7 6 6 5 5 4 3 2 1 1 1 2 2 3 4 5 4 4 4 4 4 3 2 2 2 2 2 1 1
13 11 10 9 8 9 8 10 11 10 11 11 11 11 13 13 12 10 9 8 7 7 6 5 5 4 4 3 2 2 1 1 2 3 3 4 4 4 4 4 4 4 3 3 3 3 3 2 2
12 10 9 8 9 8 9 9 11 13 12 12 11 11 12 13 12 11 9 8 8 7 7 6 6 5 5 4 3 2 2 2 3 3 3 3 4 4 4 4 4 4 4 4 4 4 3 3 3
10 8 9 9 10 10 11 11 9 13 13 14 13 12 12 12 14 12 10 9 8 7 7 6 5 5 5 5 4 4 4 3 3 2 2 2 3 4 4 4 4 4 3 4 4 3 3 3 2
9 8 8 9 10 14 12 11 7 9 12 13 13 12 12 12 13 11 10 9 8 7 7 6 6 6 6 6 5 5 4 3 3 3 2 2 2 3 5 5 5 4 3 3 3 3 3 3 3
10 8 6 7 9 10 7 8 1 5 11 13 13 13 12 12 13 12 11 9 8 7 7 6 6 6 5 5 5 5 4 3 4 3 3 3 3 3 4 5 4 4 4 3 3 3 3 3 3
10 12 8 6 7 7 5 4 3 5 9 12 13 12 13 12 12 12 11 9 8 8 7 6 6 6 5 5 5 4 4 3 4 4 4 4 3 3 4 4 4 4 5 5 4 3 3 3 3
11 11 9 7 8 7 4 2 5 7 11 13 14 14 13 12 11 11 10 9 8 8 7 6 6 6 5 5 4 4 5 5 4 4 5 4 4 4 5 4 4 4 5 5 4 3 3 3 3
11 9 6 7 7 6 5 2 3 6 9 11 12 12 13 12 11 10 9 8 8 8 6 6 6 5 4 4 3 4 4 4 5 5 5 4 4 4 4 5 4 4 4 5 4 3 3 4 3
9 10 7 6 6 5 4 0 1 6 7 10 10 12 12 12 11 10 9 8 9 8 6 6 5 5 4 4 4 4 4 4 4 4 4 4 4 4 4 4 4 4 4 4 4 4 4 4 4
9 9 8 6 7 7 5 1 5 6 7 9 11 11 11 11 11 11 10 9 8 7 6 5 5 4 4 4 4 4 4 4 4 5 4 4 4 4 4 4 4 5 5 4 4 5 5 4 5
Wind_Direction
269 261 256 259 246 242 247 243 123 102 90 79 73 80 74 58 68 93 112 104 106 110 116 112 111 116 121 125 127 129 129 128 126 125 121 116 109 103 99 96 95 94 95 96 95 92 92 91 94
270 261 250 246 249 248 239 208 112 97 92 99 90 84 82 76 78 100 108 106 108 114 120 112 113 114 118 122 125 128 131 132 131 129 126 122 117 110 105 102 100 98 97 96 96 95 94 94 97
262 261 252 241 244 257 255 123 107 107 108 106 89 70 65 72 86 104 112 114 110 111 108 109 113 114 117 123 126 129 132 134 133 133 132 129 125 117 113 110 106 101 100 100 100 98 99 100 102
246 226 238 243 245 245 221 106 113 122 123 120 105 83 73 48 99 117 120 116 116 118 113 112 112 115 117 122 127 130 132 133 135 135 135 132 127 124 122 120 115 109 105 104 104 103 105 105 102
239 242 235 247 247 241 126 108 124 138 148 129 110 98 84 74 103 116 119 122 126 119 114 115 113 114 116 120 123 126 127 128 130 132 134 133 131 130 129 130 126 122 119 115 113 111 119 133 155
225 231 237 242 237 214 138 127 161 149 134 124 114 108 97 111 114 123 125 123 119 116 113 115 113 116 117 118 120 121 123 124 125 127 131 133 136 141 144 145 142 143 145 144 143 152 173 220 258
243 247 250 247 231 191 150 143 160 155 138 115 105 102 119 130 128 128 123 119 112 113 120 128 125 121 118 116 118 120 120 123 124 128 135 142 152 161 164 160 162 166 171 179 188 199 214 234 252
246 268 266 259 236 192 149 151 126 122 94 102 112 123 139 139 134 123 121 112 110 114 121 128 133 133 137 131 127 126 126 127 132 142 153 166 179 185 184 179 180 189 197 208 219 226 235 241 248
245 257 264 255 230 163 139 148 130 110 92 71 65 89 124 134 134 127 120 108 104 106 114 124 128 134 138 139 135 139 138 135 147 164 181 197 209 199 195 201 176 198 212 222 229 235 241 246 245
229 243 252 263 205 142 142 158 159 142 107 90 87 93 115 128 132 128 123 117 115 111 112 119 119 127 138 134 136 154 154 146 172 179 200 223 246 225 195 174 180 202 221 230 233 241 251 251 248
228 245 268 8 64 106 132 145 133 149 123 112 112 115 122 127 129 124 119 116 113 113 105 105 115 121 122 121 142 146 140 147 186 196 221 253 291 267 161 160 181 205 223 229 224 230 245 257 269
236 245 250 162 113 133 151 138 92 76 93 111 119 122 125 128 125 117 111 106 105 104 98 92 97 87 78 93 127 133 130 136 132 110 1 345 308 300 292 191 193 202 223 225 233 237 243 271 274
234 232 193 136 131 176 121 104 98 94 106 113 118 126 135 130 115 102 97 97 97 95 83 68 70 74 78 74 48 91 89 120 149 146 91 333 311 308 306 281 205 253 233 221 224 251 275 282 293
221 203 182 175 163 163 129 124 113 115 119 120 123 127 123 116 114 110 106 102 97 89 82 73 77 75 77 85 83 63 69 62 63 74 66 348 348 323 318 328 324 308 341 8 330 296 290 294 297
216 193 186 190 183 170 161 153 138 138 136 131 126 120 113 109 108 105 100 96 91 86 80 75 86 70 62 60 58 66 59 50 51 56 35 3 359 339 322 321 330 353 330 330 307 304 295 271 282
208 207 201 192 195 183 191 177 147 147 146 138 132 126 117 111 106 102 99 94 90 88 81 65 69 75 69 64 50 44 43 45 46 56 43 10 359 351 327 327 349 341 319 332 294 280 298 318 320
206 212 207 188 193 191 204 174 158 164 156 147 141 140 131 121 113 108 105 100 93 89 85 77 71 71 67 71 73 68 61 43 48 53 42 12 354 356 339 336 360 335 328 337 320 5 350 335 329
205 213 209 193 187 200 198 160 158 170 163 156 151 154 144 134 126 120 114 109 101 92 85 81 75 65 61 70 79 83 80 66 60 59 43 24 7 5 351 333 1 342 349 2 360 351 338 309 286
225 224 217 197 180 198 191 166 173 173 171 164 162 162 144 134 131 125 121 114 108 98 89 81 71 59 49 45 49 81 72 70 67 65 51 38 23 9 0 356 349 348 355 358 352 347 335 319 306
248 235 220 191 175 198 190 183 185 179 181 173 167 162 148 145 139 131 123 119 114 105 92 81 71 56 39 25 25 69 82 75 76 59 49 37 28 13 12 8 348 355 350 358 356 346 327 307 314
246 239 223 193 172 209 205 203 190 188 177 172 170 162 154 152 147 139 132 126 115 105 94 82 69 55 36 23 46 69 82 82 80 67 54 35 22 23 18 6 355 349 352 11 2 356 344 326 311
239 236 237 200 199 217 217 230 200 188 185 180 175 167 160 152 146 141 135 129 119 108 95 82 70 57 39 31 40 56 65 68 60 53 60 46 25 24 23 14 4 4 9 12 6 18 349 337 322
243 244 244 231 227 237 224 241 214 184 189 187 179 171 163 153 146 141 135 125 116 109 100 91 79 64 51 45 44 55 61 61 61 57 62 58 41 30 23 20 11 12 13 18 10 360 353 341 336
249 248 245 244 241 243 241 244 232 187 192 186 177 167 155 146 137 132 129 123 117 110 104 97 84 72 62 56 52 56 62 59 60 57 43 54 48 35 24 23 15 10 9 7 360 352 348 349 342
234 235 232 238 242 249 258 247 196 168 171 171 165 155 150 140 135 136 134 131 123 113 105 95 89 78 67 61 58 54 57 66 59 55 46 38 41 41 29 22 11 5 360 358 360 352 344 350 345
227 238 231 236 260 269 262 244 121 101 122 132 137 143 140 140 138 138 138 133 126 118 109 102 93 83 72 66 58 45 39 58 56 42 39 42 34 32 22 15 12 8 3 2 4 359 358 355 341
230 239 245 250 264 267 245 158 119 107 116 127 134 139 139 136 136 137 132 126 120 114 107 102 95 87 81 78 75 64 53 54 55 49 43 39 25 22 22 16 14 9 8 0 357 13 4 356 357
237 241 251 257 270 275 261 215 162 157 144 138 137 139 137 136 136 132 126 122 115 111 104 96 95 94 85 79 75 80 70 62 57 56 51 39 30 20 17 18 16 18 17 8 3 16 10 12 5
238 242 248 261 265 273 270 247 136 154 151 144 142 144 142 141 138 132 129 123 116 112 107 102 98 94 88 79 72 73 70 66 61 56 48 35 26 19 20 22 20 20 17 10 10 24 22 23 16
242 251 248 256 271 277 281 121 95 113 130 136 136 140 140 138 136 134 130 124 120 117 112 107 103 98 95 98 94 84 75 68 62 56 45 34 25 17 17 19 17 20 19 14 17 25 28 27 23